Location: Observatorio Las Palmas
(29.0667°N, 110.9333°W)
Time: 18:59:16
(UTC-07:00)

Skynet4D Del rocket - Visible Passes

Search period start: 27 June 2017 00:00
Search period end: 07 July 2017 00:00
Orbit: 763 x 1291 km, 26.9° (Epoch: 26 June)

Date Brightness Start Highest point End Pass type
(mag) Time Alt. Az. Time Alt. Az. Time Alt. Az.
27 Jun 4.2 20:44:21 10° W 20:49:49 47° SSW 20:53:03 26° SE visible
27 Jun 6.0 22:37:35 10° WSW 22:38:39 14° WSW 22:38:39 14° WSW visible
28 Jun 4.8 21:26:03 10° W 21:31:03 30° SSW 21:31:35 29° S visible
29 Jun 4.4 20:14:50 10° W 20:19:58 40° SSW 20:24:32 15° SE visible
29 Jun 5.8 22:08:37 10° WSW 22:10:09 14° SW 22:10:09 14° SW visible
30 Jun 5.1 20:56:44 10° WSW 21:01:10 24° SSW 21:03:08 20° S visible
01 Jul 4.6 19:45:20 10° W 19:50:10 34° SSW 19:55:20 10° SE visible
01 Jul 5.8 21:40:09 10° SW 21:41:46 12° SSW 21:41:46 12° SSW visible
02 Jul 5.3 20:27:32 10° WSW 20:31:19 19° SSW 20:34:50 11° SSE visible
04 Jul 5.6 19:58:33 10° WSW 20:01:27 15° SSW 20:04:26 10° S visible
